Theta_e
311 312 314 321 322 321 326 326 324 328 328 329 328 329 334 342 344 345 347 346 344 342 342 338 336 334 331 329 329 329 328 328 328 327 326 325 326 326 320 324 325 325 325 323 325 326 326 325 325
310 311 314 323 320 325 325 323 326 326 328 328 330 338 346 342 343 342 347 340 343 341 341 338 336 334 332 331 329 327 325 323 323 324 323 324 325 323 320 324 325 324 324 324 327 327 327 331 327
310 311 320 320 318 322 324 323 324 326 326 328 327 330 348 350 351 343 346 338 343 342 341 338 337 335 335 335 334 331 328 323 322 323 324 324 323 320 323 325 325 323 323 324 327 328 332 333 336
310 313 319 319 321 319 322 324 322 323 326 327 326 326 339 353 351 344 347 337 342 341 341 338 337 338 337 336 336 336 333 325 322 325 323 322 321 321 324 326 324 324 323 323 324 328 329 337 340
311 313 311 316 317 319 321 322 324 323 323 325 325 325 347 351 349 348 347 341 341 342 341 339 338 339 339 338 338 337 337 330 323 325 320 322 320 324 326 327 325 325 324 323 323 325 329 328 333
311 310 308 311 314 317 318 322 323 323 323 322 323 334 347 350 348 344 346 345 339 341 342 340 339 339 340 341 340 339 338 336 328 323 321 321 319 323 326 327 326 325 325 323 323 323 324 327 329
308 306 307 308 310 310 315 319 320 321 321 320 321 341 343 350 350 347 349 346 339 342 342 341 341 341 341 341 341 341 339 338 335 327 324 321 320 320 326 327 326 326 326 323 323 324 323 325 327
311 306 308 306 309 310 313 315 316 319 317 318 326 337 340 347 353 349 350 347 339 341 343 342 341 341 341 341 342 342 342 340 337 333 328 324 323 323 323 324 325 327 326 321 321 323 324 323 323
310 307 306 307 309 310 313 314 316 317 317 317 321 324 333 347 352 352 350 346 341 343 342 342 342 342 342 341 341 341 342 342 339 338 334 328 324 324 326 327 328 329 326 321 321 321 322 323 323
306 304 306 308 309 312 313 313 314 315 315 316 318 326 343 350 353 352 349 346 343 341 341 341 341 342 341 341 339 338 339 341 342 339 337 334 329 325 324 325 327 329 326 322 323 322 322 322 322
307 308 307 310 312 313 312 313 314 314 313 315 317 322 342 352 353 351 348 347 348 342 336 333 332 333 335 336 337 337 337 338 340 341 338 337 335 331 327 325 326 326 325 323 323 323 322 322 321
306 306 309 310 312 313 312 314 313 313 314 316 316 316 331 351 353 350 347 345 340 335 332 332 335 336 339 338 339 338 336 336 338 340 340 338 336 334 330 326 324 325 326 325 323 323 323 323 323
306 307 308 310 310 311 311 310 311 312 313 314 315 316 317 339 352 350 346 342 339 339 338 336 337 339 339 341 338 337 336 336 337 340 340 338 336 335 334 330 325 323 325 325 324 323 323 324 325
309 308 309 310 310 310 310 310 311 313 314 314 315 317 317 326 345 352 348 344 341 343 345 344 341 340 341 341 338 337 335 334 336 338 338 337 336 333 330 330 328 323 323 324 324 324 334 340 338
310 309 308 307 309 309 310 309 309 312 313 314 316 317 325 333 343 349 350 346 345 341 340 343 347 345 343 341 339 337 335 334 334 335 335 333 329 328 327 324 326 323 324 329 328 335 339 340 342
308 307 308 307 307 309 310 310 311 313 313 314 316 319 326 333 341 343 350 350 347 344 341 341 339 339 343 344 339 338 335 333 331 331 332 333 331 330 330 327 324 324 326 336 339 340 339 339 343
310 311 307 311 307 309 308 309 310 313 313 314 315 316 325 332 342 345 346 348 348 346 345 344 342 346 347 343 340 338 336 332 330 333 338 338 336 336 334 335 333 327 329 336 339 334 329 328 339
311 313 314 312 310 308 308 309 311 312 313 314 315 315 327 333 327 332 343 346 347 346 345 343 343 346 346 345 342 339 336 335 338 342 343 341 340 342 343 343 339 329 326 331 332 334 331 331 339
311 312 312 312 312 311 308 308 308 309 310 311 314 315 316 326 318 322 335 342 345 344 342 341 342 341 340 342 344 342 340 340 341 342 342 341 341 340 337 338 340 332 331 333 335 335 335 332 332
312 314 313 313 311 310 311 310 309 309 309 311 313 314 315 316 319 322 330 337 337 338 340 341 339 338 337 340 343 343 343 342 343 343 342 340 338 336 337 338 337 333 336 334 335 336 332 334 336
314 314 312 313 312 312 312 311 312 312 310 312 313 315 315 316 317 319 327 335 337 336 337 337 339 337 338 341 344 345 344 343 344 343 341 343 340 339 340 340 338 336 334 336 335 336 335 334 331
314 315 313 313 312 312 311 310 311 312 311 311 312 314 315 315 316 317 322 329 332 331 336 337 337 340 341 343 343 342 340 340 340 341 340 338 336 336 336 336 335 335 335 337 336 335 331 333 335
315 316 315 316 311 311 311 310 310 312 314 313 315 319 318 315 314 316 317 320 326 332 334 336 337 338 340 341 340 339 339 340 340 338 335 336 335 334 335 335 335 332 333 332 332 331 332 334 335
316 316 316 311 308 310 309 310 310 312 321 318 318 324 324 322 318 315 315 321 329 332 335 334 332 331 330 332 334 337 337 337 336 335 334 335 334 335 333 332 334 333 333 333 334 333 331 332 330
316 316 312 311 310 312 309 310 310 322 321 320 320 323 327 327 322 317 314 318 327 330 331 330 328 326 328 329 333 337 337 336 334 333 333 332 333 333 333 332 332 332 331 332 332 332 332 329 329
316 314 310 313 311 310 310 311 315 323 323 323 322 323 326 327 327 324 322 325 328 328 329 329 328 331 337 337 335 333 331 330 328 327 326 326 326 325 328 329 328 329 330 330 330 330 330 331 330
318 316 309 309 311 311 315 324 324 323 323 324 322 322 322 326 327 329 329 330 330 331 334 333 335 333 331 331 330 330 329 329 328 326 324 324 325 325 323 324 323 322 322 324 324 326 326 327 328
317 314 314 311 315 316 326 325 326 327 327 325 323 322 322 323 325 328 329 330 330 330 330 330 330 329 327 326 325 325 325 325 324 323 323 323 324 323 321 315 317 316 315 314 313 313 313 313 313
317 316 313 310 314 320 325 326 322 324 323 324 322 322 321 322 322 321 322 323 324 323 323 323 321 321 320 319 317 317 317 316 314 313 313 312 313 313 311 311 310 310 310 309 309 309 309 309 309
317 314 310 312 320 317 318 328 323 321 320 321 320 316 316 318 318 318 317 316 316 315 314 315 315 314 313 313 313 313 312 311 311 310 310 310 310 310 310 309 308 308 308 308 308 308 308 307 307
Wind_Speed
11 12 8 3 2 4 4 7 2 3 3 5 17 10 8 5 0 3 6 21 27 34 34 31 28 24 22 21 21 20 19 18 17 16 15 15 15 16 18 18 16 14 14 14 14 14 14 15 17
8 8 5 2 5 2 6 4 6 4 4 16 14 13 3 3 5 5 8 18 28 33 33 31 27 24 22 20 19 19 18 16 17 17 16 16 17 18 20 18 15 14 14 14 14 14 14 15 17
6 9 5 4 4 7 7 5 7 4 10 10 6 11 5 2 4 1 5 21 27 32 32 30 27 25 22 20 18 16 16 15 16 17 17 18 18 20 20 17 15 14 14 14 14 13 12 13 14
7 6 2 4 7 8 7 3 1 5 6 8 14 6 7 4 4 4 11 21 30 33 32 30 28 25 22 19 17 15 14 14 15 16 17 18 20 21 20 18 16 14 14 13 13 13 12 11 11
8 4 2 3 7 6 3 2 5 5 5 2 11 6 4 6 4 6 16 22 31 33 32 30 28 26 23 20 18 15 13 12 13 15 15 17 19 20 19 17 15 13 13 13 13 13 12 10 9
4 2 2 7 7 6 3 7 6 4 12 4 8 7 4 6 4 14 26 23 31 32 32 30 28 25 23 20 18 16 14 12 12 14 15 17 18 19 18 17 15 13 12 12 12 12 12 12 11
6 4 5 3 4 7 5 9 5 10 19 2 11 3 4 7 10 19 29 25 33 31 31 30 28 26 24 21 18 16 15 14 11 11 14 16 17 18 18 17 15 13 12 11 11 11 12 13 13
6 4 4 5 5 7 3 5 14 6 3 4 2 4 6 11 15 18 27 27 32 30 31 31 30 28 25 23 20 18 17 15 14 12 12 14 16 16 17 15 15 13 11 11 11 12 12 13 14
8 2 4 6 6 5 2 2 4 3 5 5 7 17 18 13 17 22 27 31 33 31 31 31 30 28 26 24 22 20 19 19 18 15 13 12 13 14 15 16 15 14 12 12 12 12 12 13 13
6 4 10 7 6 3 3 3 7 2 6 6 10 15 9 16 22 28 33 37 35 33 34 32 30 28 26 25 24 23 22 21 20 19 17 15 14 14 16 17 17 16 14 13 13 12 13 13 12
8 7 6 5 8 13 7 3 9 4 5 7 9 8 8 21 25 30 33 33 26 28 29 30 29 28 29 27 25 25 24 24 23 22 20 17 15 15 15 17 18 17 16 15 14 14 14 13 14
4 9 6 12 17 6 5 6 8 9 10 15 14 12 13 22 27 31 31 30 28 28 29 30 31 32 31 30 29 27 26 25 25 24 22 20 17 16 15 16 17 18 18 18 17 16 16 16 16
4 3 12 27 23 17 19 15 13 8 15 25 24 23 24 25 29 29 31 31 32 31 31 32 33 32 31 30 25 24 25 24 23 23 21 19 17 16 15 15 16 17 19 19 18 18 18 18 19
7 16 16 11 13 11 9 12 10 5 9 13 21 21 23 26 33 34 34 30 28 26 28 28 29 28 26 25 22 24 24 21 22 22 20 18 17 15 14 16 17 16 17 18 19 18 17 17 19
12 3 5 6 15 8 10 14 7 17 16 24 19 16 20 22 33 38 39 35 30 28 22 20 20 24 25 26 22 22 22 21 21 21 20 18 15 15 15 14 17 16 15 15 17 17 18 19 21
5 6 9 6 9 8 12 8 3 9 11 20 23 19 20 21 23 33 38 36 32 28 23 23 24 23 24 24 24 23 21 21 20 21 21 16 17 18 17 16 17 16 17 16 16 17 19 23 24
4 4 5 2 10 7 9 4 12 19 20 23 26 21 21 20 20 24 34 36 34 30 27 26 22 20 21 24 23 22 22 21 22 22 20 20 20 19 18 19 15 16 20 21 19 21 28 31 31
6 6 4 6 8 10 6 3 8 9 9 15 17 19 20 21 19 20 25 32 34 32 29 26 20 19 20 20 21 22 24 24 23 22 21 14 17 21 20 22 16 22 24 27 29 25 28 32 34
12 4 9 5 7 6 6 6 10 11 6 14 19 19 20 24 17 22 27 31 33 31 30 27 22 20 20 24 28 28 29 28 26 29 26 27 24 25 28 26 23 27 32 31 33 34 36 34 39
13 6 4 2 4 5 4 5 8 4 6 13 20 20 21 22 26 26 28 31 30 30 32 30 26 25 24 28 31 30 32 32 29 27 29 29 32 31 26 30 28 31 31 31 36 39 38 38 37
19 14 5 5 2 1 2 5 5 5 6 12 17 19 18 21 24 24 30 32 31 30 31 32 32 28 26 28 28 30 30 30 30 28 25 26 26 30 32 34 34 34 31 41 42 42 42 38 29
18 10 6 6 4 3 2 4 4 3 6 6 16 17 18 19 25 24 27 31 31 29 31 33 31 28 28 27 27 28 29 27 25 24 21 21 21 24 27 29 32 37 38 35 32 25 20 23 35
7 15 11 4 4 2 2 4 7 1 3 7 3 11 3 12 18 24 26 28 30 29 28 28 28 28 27 27 27 28 28 27 25 19 13 12 14 16 15 12 15 11 16 14 11 13 19 22 22
13 13 8 4 4 4 6 5 6 1 3 7 4 8 8 3 7 16 24 28 29 29 25 24 22 18 16 18 17 18 20 20 17 17 15 12 16 16 11 15 16 23 21 16 19 19 18 20 23
18 16 4 1 2 5 9 6 5 3 4 5 2 5 9 10 7 8 17 23 24 23 23 20 16 14 13 11 10 10 9 7 4 4 7 7 8 9 10 12 12 15 20 21 21 23 22 25 28
13 11 5 6 5 4 1 7 4 2 4 5 6 9 16 18 15 12 11 14 14 13 13 15 12 10 10 11 11 9 6 5 1 3 5 8 10 12 12 11 14 19 18 19 19 19 22 23 21
23 10 8 6 1 6 4 2 2 4 5 7 9 15 20 21 23 23 22 21 19 19 20 18 19 20 16 13 8 4 1 1 4 8 11 13 11 10 10 12 13 13 15 17 18 19 20 22 23
23 12 9 1 5 5 3 5 6 5 7 8 10 18 23 29 33 34 35 34 33 31 28 25 21 18 13 9 6 4 2 2 5 7 8 8 10 12 14 12 14 17 18 18 20 21 22 23 24
10 12 5 5 4 5 5 3 4 6 6 12 11 19 29 35 37 36 34 31 28 25 22 20 17 16 13 11 9 6 4 2 2 4 6 6 8 11 13 16 16 18 20 21 23 24 25 26 27
4 13 6 5 2 2 3 3 3 7 7 12 16 19 28 34 34 32 32 32 29 27 24 22 18 15 13 11 7 6 4 3 4 4 7 10 12 15 17 19 21 21 21 21 23 24 24 24 24
Wind_Direction
242 241 246 265 37 53 253 252 256 310 344 325 324 288 255 37 206 241 329 172 174 170 168 168 168 167 167 165 165 162 161 166 169 172 172 167 161 156 155 155 152 149 145 139 134 134 134 132 131
225 221 206 149 121 169 257 213 186 216 294 323 334 333 322 37 31 338 140 159 171 171 169 168 166 165 164 163 163 164 164 169 174 174 169 166 163 161 161 160 157 153 148 146 142 141 138 134 131
193 185 168 148 171 188 237 175 173 250 322 341 351 338 344 0 2 6 178 160 171 173 170 169 167 166 164 164 164 162 160 163 170 170 169 168 167 167 166 164 163 158 155 155 154 149 141 142 141
166 159 108 137 214 252 207 164 88 334 41 43 349 323 320 338 330 174 186 170 173 174 172 171 171 170 168 169 169 165 159 159 166 171 173 171 170 171 172 171 172 166 163 165 166 164 158 156 152
176 156 125 230 242 245 245 285 9 338 313 359 343 288 289 286 272 182 180 172 175 175 175 175 176 175 174 175 176 173 166 160 167 174 176 176 177 177 179 180 179 173 171 173 176 181 178 178 180
166 121 120 223 234 267 291 269 281 257 274 325 309 289 265 277 193 164 176 174 177 179 178 178 178 179 179 181 183 183 180 174 174 177 181 183 184 186 188 188 187 183 183 183 184 189 193 196 199
146 108 217 216 254 273 193 244 223 251 272 249 299 251 270 243 187 171 174 177 178 182 181 183 181 182 182 182 186 193 193 191 188 187 189 189 191 194 198 200 198 196 196 195 195 197 198 203 209
190 128 192 224 190 267 239 203 236 220 267 326 332 253 276 244 202 179 182 179 179 183 186 187 187 188 190 189 189 193 198 203 207 206 199 200 202 204 207 208 206 208 211 209 208 208 209 211 215
185 152 206 209 175 224 316 182 189 212 272 330 320 300 291 264 199 182 178 177 181 185 190 192 193 194 196 199 199 198 201 201 204 208 211 213 215 216 217 217 217 221 225 224 222 221 223 226 226
168 184 208 202 177 175 258 255 288 260 305 304 308 308 301 221 189 182 177 178 184 186 190 194 193 199 202 206 207 208 210 210 210 212 215 216 215 220 224 227 229 231 236 235 234 237 239 240 242
201 225 176 201 207 221 245 268 256 185 261 235 287 316 271 189 184 186 184 187 187 193 192 194 199 199 202 208 212 214 216 215 216 218 221 225 227 230 234 236 239 241 245 246 248 250 253 256 255
228 216 189 212 227 220 221 247 275 223 254 275 265 296 272 205 197 193 190 192 186 190 195 198 201 201 203 204 208 213 217 218 219 220 222 228 232 239 247 249 250 249 249 253 255 256 260 260 264
205 219 217 234 237 242 263 257 261 268 273 277 271 274 269 238 211 201 198 191 192 196 199 204 204 206 205 210 207 216 221 222 223 223 225 231 240 248 256 264 262 259 255 256 260 263 268 272 271
210 202 229 235 236 228 223 255 234 310 321 289 281 257 253 234 223 211 202 200 202 214 217 217 213 211 212 215 215 218 225 226 226 226 228 232 241 248 256 264 268 267 263 261 262 267 272 280 281
250 262 271 208 226 248 260 275 214 254 263 271 278 236 239 235 224 219 216 212 232 230 234 228 211 214 217 222 222 224 226 227 225 225 228 233 240 245 245 255 266 262 254 259 262 265 266 279 283
146 160 233 198 177 237 166 257 255 218 239 246 248 242 234 230 232 228 223 223 233 227 230 225 236 235 227 225 222 225 224 226 226 230 228 237 250 241 241 244 253 253 244 248 251 262 266 271 272
230 187 177 180 178 194 177 227 253 241 235 237 245 238 224 222 224 224 225 224 228 237 241 241 241 223 221 219 221 225 227 228 227 223 223 233 241 246 245 249 234 242 248 245 248 250 264 277 273
190 157 182 173 203 186 177 240 285 269 205 233 230 214 213 215 212 214 224 228 229 234 237 238 232 225 228 225 224 225 225 223 223 228 237 242 246 254 247 240 224 231 242 247 255 264 258 256 269
192 155 185 187 195 149 208 204 244 262 231 244 248 241 227 217 216 219 221 226 232 235 232 228 225 227 238 233 222 227 227 224 236 240 237 259 252 252 254 253 253 257 246 256 262 258 251 259 264
232 192 188 252 145 142 186 228 233 228 222 223 234 236 227 229 225 220 219 223 223 228 229 230 240 245 240 235 233 233 233 234 246 250 257 263 265 266 257 262 258 252 263 266 266 267 259 265 266
211 207 168 131 64 52 114 301 238 243 221 238 238 241 242 234 221 215 215 221 226 226 228 233 242 241 236 235 239 241 240 245 253 251 268 264 256 255 266 269 266 255 257 274 278 279 266 273 248
205 175 157 149 94 187 114 263 278 237 258 219 228 225 234 238 232 228 218 215 220 225 229 230 234 238 233 234 239 245 252 254 261 268 276 274 273 277 275 268 268 267 270 271 279 266 248 252 268
198 162 179 143 134 104 284 81 265 341 237 228 61 89 135 236 236 229 220 221 221 228 232 235 237 236 237 238 242 247 253 262 262 274 277 293 280 282 273 277 270 255 297 273 264 259 269 265 267
156 160 145 73 107 255 194 141 280 93 298 309 1 58 72 111 216 218 222 228 226 228 230 234 232 230 234 238 245 243 242 252 258 258 244 273 272 274 276 266 256 251 272 255 261 262 261 254 253
162 154 119 121 188 216 179 144 231 320 324 251 292 52 81 90 107 176 201 214 222 222 225 228 220 210 213 227 226 231 239 254 267 271 274 307 296 295 289 285 267 270 261 269 268 263 254 248 248
183 162 148 154 153 155 191 185 264 35 47 66 88 86 78 83 97 111 143 176 185 184 186 196 182 171 155 151 140 136 137 156 111 332 332 333 319 309 294 277 278 282 277 273 268 259 258 255 250
187 195 152 106 168 115 166 63 61 71 63 73 86 87 84 84 102 108 119 127 130 134 132 140 139 130 125 117 110 109 108 323 311 312 310 311 314 303 302 299 296 288 288 287 290 284 276 272 270
181 155 159 18 147 126 209 167 170 166 139 116 106 99 94 99 106 111 113 115 117 119 120 121 124 123 116 122 130 145 172 261 289 299 294 287 285 290 290 295 288 288 285 285 285 280 280 280 279
148 170 136 136 130 142 139 218 200 156 153 135 118 108 109 110 113 112 111 111 111 111 110 107 105 108 108 102 98 89 71 28 0 342 312 307 295 290 300 300 292 289 290 290 290 291 289 287 286
134 169 120 133 172 89 115 156 94 126 127 136 114 106 115 119 118 115 111 109 108 105 103 100 96 95 91 81 67 53 36 13 345 323 312 315 310 310 307 310 311 310 307 303 301 300 299 297 297